This demonstration page uses our WeatherBlox Daily Observations layout. Learn more.

41.55636, -103.73856

Hourly Observations for July 8, 2019

Temp ( °F °C ) Dew Point ( °F °C ) Humidity (%) Winds ( mph kmh ) Pressure ( in mb ) Visibility ( mi km ) Precip ( " mm )
12:53 am 00:53 Clear 68 20 N/A N/A SE 24 39 29.85 1011 10 16.09344 0 0
1:53 am 01:53 Clear 66 19 N/A N/A SSE 7 11 29.8 1009 10 16.09344 0 0
2:53 am 02:53 Clear 63 17 N/A N/A S 6 9 29.8 1009 10 16.09344 0 0
3:53 am 03:53 Clear 61 16 N/A N/A ESE 6 9 29.77 1008 10 16.09344 0 0
4:53 am 04:53 Clear 61 16 N/A N/A undefined N/A 29.8 1009 10 16.09344 0 0
5:53 am 05:53 Sunny 61 16 N/A N/A E 7 11 29.8 1009 10 16.09344 0 0
6:53 am 06:53 Sunny 66 19 N/A N/A E 3 6 29.8 1009 10 16.09344 0 0
7:53 am 07:53 Sunny 70 21 N/A N/A ESE 7 11 29.8 1009 10 16.09344 0 0
8:53 am 08:53 Sunny 72 22 N/A N/A SE 8 13 29.8 1009 10 16.09344 0 0
9:53 am 09:53 Sunny 73 23 N/A N/A ESE 12 19 29.77 1008 10 16.09344 0 0
10:53 am 10:53 Sunny 73 23 N/A N/A ESE 9 15 29.77 1008 10 16.09344 0 0
11:53 am 11:53 Sunny 79 26 N/A N/A ESE 12 19 29.77 1008 10 16.09344 0 0
12:53 pm 12:53 Sunny 82 28 N/A N/A VRB 6 9 29.74 1007 10 16.09344 0 0
1:53 pm 13:53 Sunny 86 30 N/A N/A SSE 8 13 29.71 1006 10 16.09344 0 0
2:53 pm 14:53 Mostly Sunny 84 29 N/A N/A VRB 3 6 29.71 1006 10 16.09344 0 0
3:35 pm 15:35 Sunny with Nearby Thunderstorms 77 25 N/A N/A WNW 9 15 29.62 1003 10 16.09344 0.001 0.001
3:51 pm 15:51 Windy with Storms Likely 70 21 N/A N/A W 28 44 29.74 1007 6 9.656064 0.02 0.508
3:53 pm 15:53 Windy with Storms Likely 70 21 N/A N/A W 23 37 29.8 1009 5 8.04672 0.02 0.508
4:05 pm 16:05 Cloudy with Thunderstorms 64 18 N/A N/A W 29 46 29.77 1008 2 3.218688 0.08 2.032
4:20 pm 16:20 Cloudy with Thunderstorms 64 18 N/A N/A W 16 26 29.77 1008 5 8.04672 0.17 4.318
4:53 pm 16:53 Cloudy with Light Thunderstorms 64 18 N/A N/A W 7 11 29.83 1010 10 16.09344 0.18 4.572
5:04 pm 17:04 Cloudy with Light Rain 66 19 N/A N/A W 3 6 29.77 1008 4 6.437376 0.02 0.508
5:53 pm 17:53 Sunny 70 21 N/A N/A Calm 29.77 1008 10 16.09344 0.05 1.27
6:53 pm 18:53 Sunny 73 23 N/A N/A Calm 29.77 1008 10 16.09344 0 0
7:53 pm 19:53 Sunny 70 21 N/A N/A S 3 6 29.74 1007 10 16.09344 0 0
8:53 pm 20:53 Clear 66 19 N/A N/A SE 6 9 29.77 1008 10 16.09344 0 0
9:53 pm 21:53 Clear 64 18 N/A N/A undefined N/A 29.8 1009 10 16.09344 0 0
10:53 pm 22:53 Clear 63 17 N/A N/A Calm 29.77 1008 10 16.09344 0 0
11:53 pm 23:53 Clear 61 16 N/A N/A N 6 9 29.8 1009 10 16.09344 0 0

Powered by AerisWeather